Total_Precipitation_Accumulation
0.99 1.17 1.55 2.08 2.16 2.61 2.84 2.78 2.99 3.43 3.41 3.04 2.67 2.97 3.20 3.44 3.86 3.63 3.35 3.54 3.51 3.26 3.43 3.55 3.31 3.57 3.70 3.61 3.38 3.07 2.96 3.02 2.64 1.41 1.22 1.40 1.62 1.59 1.34 1.25 1.24 1.26 1.28
2.04 2.36 2.38 2.70 2.95 2.81 2.97 2.84 2.50 3.45 3.61 3.32 3.26 2.91 3.37 3.21 2.86 2.75 2.67 2.56 2.78 2.74 2.74 3.33 3.41 3.52 3.19 2.59 2.31 2.01 1.89 2.00 2.19 1.57 1.40 1.49 1.49 1.40 1.22 1.22 1.26 1.33 1.25
2.52 2.73 2.45 2.74 2.80 3.01 2.81 2.66 2.49 2.32 2.90 2.90 2.98 2.91 2.35 2.78 2.53 2.33 2.37 2.49 2.31 2.53 2.59 2.29 2.11 2.30 2.37 2.17 1.98 1.82 1.71 1.82 1.89 1.92 1.73 1.76 1.75 1.57 1.48 1.34 1.27 1.23 1.40
1.65 1.65 1.96 2.07 1.92 1.90 1.76 1.92 2.09 2.09 1.97 1.90 2.07 2.19 2.09 1.72 1.83 1.70 1.62 1.50 1.60 1.52 1.66 1.92 1.84 1.75 1.87 1.92 1.73 1.60 1.65 1.96 2.22 2.41 2.22 2.03 1.76 1.57 1.33 1.41 1.68 1.73 1.75
1.62 1.51 1.56 1.84 1.94 1.48 1.31 1.33 1.71 1.67 1.72 1.93 1.99 2.09 2.34 2.17 1.99 1.95 1.90 1.59 1.51 1.42 1.20 1.14 1.31 1.72 1.94 2.02 1.90 1.75 1.80 1.96 2.01 2.14 2.20 2.20 2.08 1.94 1.80 1.54 1.68 1.96 2.32
1.33 1.31 1.33 1.26 1.29 1.30 1.29 1.14 1.19 1.41 1.56 1.70 1.96 2.40 2.67 2.82 2.75 2.19 1.85 1.72 1.60 1.36 1.29 1.13 1.10 1.61 1.48 1.94 2.28 2.27 2.06 2.30 2.37 2.34 2.27 2.22 1.88 1.83 1.76 1.77 2.02 2.17 2.39
1.16 1.26 1.14 1.05 1.02 1.08 1.03 0.96 0.94 1.10 1.26 1.50 1.70 1.73 1.82 2.10 2.58 2.18 1.93 1.45 1.31 1.35 1.31 1.21 1.16 1.38 1.72 1.25 2.01 2.25 2.21 2.66 2.64 2.42 2.38 2.13 2.09 2.03 2.03 2.21 2.02 1.99 2.08
0.94 1.02 1.08 0.97 0.92 0.96 0.88 0.87 0.84 0.86 0.89 0.83 0.82 0.84 0.86 1.01 1.46 1.50 1.67 1.43 1.47 1.49 1.45 1.58 1.58 1.46 1.64 1.83 1.75 1.80 1.72 1.90 2.28 2.25 2.18 2.34 2.41 2.33 2.11 2.02 2.20 2.60 2.61
1.00 1.04 1.06 0.97 0.84 0.91 0.99 1.08 1.05 0.96 0.86 0.74 0.61 0.52 0.48 0.47 0.68 0.67 0.81 0.76 1.05 1.34 1.41 1.49 1.63 1.58 2.13 1.98 1.64 1.84 1.98 2.03 2.57 2.58 2.40 2.36 2.38 2.43 2.40 2.58 2.66 2.43 2.75
1.09 1.08 1.08 1.05 1.11 1.14 1.14 1.19 1.20 1.07 1.04 1.10 1.02 0.81 1.00 0.81 1.14 0.91 0.85 0.69 0.83 0.89 0.99 1.11 1.60 1.28 1.69 1.57 1.42 1.41 1.65 1.77 1.97 2.19 2.18 1.94 1.72 1.85 2.14 1.92 2.10 2.76 2.79
1.46 1.28 1.44 1.31 1.11 0.97 0.94 0.85 1.04 1.08 1.10 1.22 1.42 1.44 1.26 1.40 1.54 1.72 1.39 0.92 0.86 0.91 0.99 1.05 1.26 1.94 1.60 1.60 1.51 1.50 2.01 1.97 2.12 1.88 2.02 2.22 2.13 1.90 1.88 2.02 2.03 2.38 2.57
2.01 1.95 1.75 2.03 1.83 1.52 1.22 1.02 0.88 1.23 1.66 1.75 1.68 1.67 1.56 1.59 2.23 2.05 1.84 2.05 2.23 1.87 1.95 1.87 2.06 2.10 1.90 2.11 2.13 2.50 2.52 2.25 1.89 1.99 2.01 2.11 2.19 2.20 2.06 1.90 1.89 2.04 2.10
1.85 2.21 2.25 2.10 2.16 1.87 1.66 1.47 1.37 1.22 1.27 1.51 1.75 1.92 1.96 1.87 2.28 2.75 2.44 2.40 2.43 2.09 2.37 2.70 2.78 2.38 2.06 2.12 2.43 2.49 2.45 2.37 2.45 2.47 2.34 2.11 1.72 1.53 1.51 1.47 1.33 1.21 1.36
1.66 1.54 1.52 1.70 1.84 1.96 2.05 2.02 1.91 1.94 1.93 2.08 2.27 2.51 2.51 2.41 2.33 2.47 2.67 2.73 2.84 2.97 3.36 3.44 3.39 3.06 2.89 2.88 2.85 2.58 2.25 2.30 2.23 1.94 1.68 1.44 1.30 1.22 1.25 1.27 1.52 1.41 1.52
0.83 0.69 0.69 0.91 1.17 1.46 1.91 2.49 2.55 2.82 2.83 2.73 2.84 2.79 2.88 3.01 3.30 3.14 2.93 2.90 3.03 3.07 2.96 2.96 2.84 2.46 2.11 1.84 1.57 1.41 1.30 1.28 1.34 1.27 1.33 1.29 1.17 1.21 1.24 1.11 1.16 1.13 1.29
0.52 0.51 0.61 0.61 0.78 1.06 1.44 2.06 2.86 3.26 3.28 3.25 3.30 3.17 3.39 3.57 3.57 3.19 3.05 3.08 3.06 2.83 2.48 2.19 2.04 1.89 1.69 1.54 1.41 1.25 1.14 1.27 1.11 1.26 1.40 1.32 1.33 1.30 1.33 1.27 1.25 1.26 1.23
0.89 0.83 0.95 1.08 1.16 1.38 1.61 1.85 2.44 2.97 3.11 3.27 3.28 3.24 3.20 3.30 3.08 2.94 2.84 2.70 2.56 2.21 2.27 2.20 2.06 1.94 1.79 1.62 1.52 1.52 1.54 1.46 1.42 1.47 1.53 1.60 1.72 1.77 1.89 1.50 1.35 1.25 1.23
1.85 1.77 1.74 1.95 2.04 2.07 2.07 2.16 2.18 2.18 2.11 2.12 2.11 1.96 1.95 1.97 1.93 1.94 2.03 2.11 2.36 2.20 2.04 1.98 2.00 1.99 1.92 1.89 1.86 1.78 1.72 1.71 1.70 1.71 1.70 1.65 1.68 1.68 1.74 1.58 1.44 1.36 1.29
1.31 1.51 1.41 1.37 1.28 1.22 1.15 1.18 1.18 1.19 1.17 1.19 1.11 1.03 1.02 1.03 1.04 1.08 1.09 1.25 1.37 1.45 1.59 1.61 1.59 1.60 1.61 1.63 1.67 1.74 1.83 1.89 1.89 1.83 1.87 1.91 1.93 1.83 1.76 1.63 1.53 1.41 1.28
0.98 1.11 1.02 0.99 1.06 0.97 0.82 0.73 0.70 0.68 0.71 0.66 0.63 0.70 0.67 0.64 0.61 0.69 0.84 0.98 1.06 1.07 1.09 1.15 1.15 1.16 1.20 1.29 1.37 1.43 1.44 1.53 1.58 1.63 1.70 1.80 1.93 1.93 1.87 1.79 1.68 1.64 1.41
0.95 0.91 0.83 0.69 0.65 0.62 0.59 0.57 0.55 0.62 0.63 0.59 0.52 0.54 0.50 0.51 0.53 0.60 0.66 0.75 0.75 0.80 0.87 0.91 0.94 1.00 1.01 1.03 1.03 1.08 1.12 1.14 1.18 1.31 1.42 1.53 1.66 1.75 1.67 1.75 1.72 1.56 1.42
0.65 0.60 0.54 0.53 0.51 0.48 0.43 0.39 0.44 0.47 0.47 0.50 0.52 0.64 0.73 0.74 0.59 0.55 0.55 0.56 0.60 0.63 0.72 0.80 0.84 0.88 0.88 0.94 0.98 1.01 0.94 0.91 0.95 1.06 1.12 1.25 1.38 1.44 1.51 1.60 1.62 1.59 1.52
0.40 0.41 0.39 0.39 0.39 0.37 0.39 0.38 0.45 0.47 0.49 0.52 0.52 0.55 0.62 0.67 0.65 0.64 0.64 0.62 0.64 0.67 0.63 0.70 0.70 0.65 0.62 0.70 0.81 0.94 0.97 0.87 0.90 1.09 1.15 1.05 1.14 1.30 1.34 1.39 1.37 1.48 1.43
0.28 0.30 0.32 0.31 0.34 0.35 0.36 0.40 0.44 0.51 0.55 0.55 0.53 0.56 0.62 0.67 0.69 0.69 0.72 0.73 0.76 0.74 0.75 0.79 0.69 0.66 0.62 0.61 0.63 0.70 0.75 0.81 0.94 1.03 1.18 1.20 0.99 1.11 1.25 1.30 1.22 1.25 1.31
0.25 0.30 0.33 0.37 0.40 0.46 0.49 0.49 0.47 0.40 0.42 0.45 0.47 0.49 0.48 0.55 0.63 0.75 0.81 0.79 0.80 0.84 0.88 0.91 0.87 0.80 0.82 0.86 0.85 0.73 0.71 0.82 0.98 1.10 1.19 1.17 1.04 0.97 1.09 1.20 1.14 1.25 1.29
0.26 0.32 0.35 0.40 0.47 0.48 0.49 0.45 0.42 0.37 0.39 0.39 0.39 0.41 0.46 0.50 0.59 0.65 0.66 0.68 0.74 0.84 0.91 0.98 0.97 0.89 0.83 0.78 0.79 0.81 0.78 0.88 0.96 1.06 1.29 1.24 1.13 1.03 1.08 1.16 1.17 1.22 1.09